Вернуться в каталог

LANDSAT 7

АктивенНаукаSSO
NORAD 25682·PAYLOAD·🇺🇸 United States

Запущен Apr 15, 1999 с Vandenberg Space Force Base

Loading…

Ближайшие Пролёты (ближайшие 24 часа)

TLE

СвежийSource: Space-Track

Эпоха: Sep 14, 2026, 13:52 UTC

1 25682U 99020A   26257.57845811  .00000286  00000-0  63068-4 0  9997
2 25682  97.8637 257.1432 0001544 100.7931 331.9321 14.63980648458923

Отслеживайте LANDSAT 7 в реальном времени с AllMySat

Download on the App Store